Flag for U.S.A. Weather past 2 weeks in Hartford, Connecticut, U.S.A.

Now
68 °F

Partly sunny.


Feels Like: 68 °F
Forecast: 50 / 67 °F
Wind: 9 mph from Northwest

Location: Hartford-Brainard Airport

Current Time: Sep 22, 2014 at 2:36:35 PM

Latest Report: Sep 22, 2014 at 1:53 PM


Visibility: 10 mi

Pressure: 29.86 "Hg

Humidity: 45%

Dew point: 46 °F

Location of HartfordLocation

Historic Weather in Hartford — Graph

°F

Hartford temperature yesterday

Maximum temperature yesterday: 77 °F (at 2:00 PM)
Minimum temperature yesterday: 61 °F (at 3:02 AM)
Average temperature yesterday: 68 °F

Past Weeks' High & Low Weather Summary

 TemperatureHumidityPressure
High79 °F (Sep 7, 2:53 PM)100% (Sep 17, 3:53 AM)30.40 "Hg (Sep 17, 3:53 AM)
Low46 °F (Sep 15, 5:53 AM)32% (Sep 7, 2:53 PM)29.58 "Hg (Sep 21, 10:53 PM)
Average62 °F71%30.10 "Hg
* Reported Sep 7 12:53 PM — Sep 22 12:53 PM, Hartford, Weather by CustomWeather, © 2014

Note: Actual official high and low records may vary slightly from our data, if they occured in-between our weather recording intervals... More about our weather records

Advertising

Hartford weather history for previous 24 hours

 ConditionsComfort  
Time TempWeatherWind HumidityBarometerVisibility
12:53 PM
Sep 22
69 °FSunny.14 mph44%29.84 "Hg10 mi
11:53 AM69 °FSunny.13 mph45%29.83 "Hg10 mi
10:53 AM69 °FScattered clouds.12 mph51%29.81 "Hg10 mi
9:53 AM66 °FPartly sunny.8 mph61%29.80 "Hg10 mi
8:53 AM65 °FPartly sunny.10 mph66%29.76 "Hg10 mi
7:53 AM63 °FSunny.10 mph70%29.73 "Hg10 mi
6:53 AM62 °FClear.8 mph78%29.70 "Hg10 mi
5:53 AM63 °FClear.8 mph81%29.65 "Hg10 mi
4:53 AM61 °FClear.9 mph87%29.63 "Hg10 mi
3:53 AM60 °FClear.N/A96%29.61 "Hg10 mi
2:53 AM66 °FLight rain. Mostly cloudy.7 mph75%29.61 "Hg10 mi
1:53 AM68 °FMostly cloudy.7 mph90%29.61 "Hg10 mi
12:53 AM67 °FPassing clouds.3 mph97%29.59 "Hg7 mi
11:53 PM
Sep 21
68 °FFog.5 mph96%29.58 "Hg2 mi
10:53 PM68 °FPassing clouds.5 mph96%29.58 "Hg7 mi
9:50 PM67 °FFog.No wind100%29.59 "Hg0 mi
8:57 PM68 °FFog.N/A96%29.60 "Hg1 mi
7:53 PM70 °FPassing clouds.N/A97%29.60 "Hg10 mi
6:53 PM72 °FSunny.5 mph91%29.61 "Hg10 mi
5:53 PM73 °FSunny.5 mph90%29.62 "Hg10 mi
4:53 PM74 °FPartly sunny.9 mph88%29.65 "Hg10 mi
3:53 PM75 °FPartly sunny.12 mph85%29.68 "Hg10 mi
2:53 PM76 °FBroken clouds.7 mph80%29.71 "Hg10 mi
2:00 PM77 °FScattered clouds.10 mph77%29.74 "Hg10 mi
Weather by CustomWeather, © 2014

See weather overviewHow to use our weather pages